2022/12/29 00:00:00,11.4,-1.5
2022/12/29 00:10:00,11.4,-1.3
2022/12/29 00:20:00,11.4,-1.2
2022/12/29 00:30:00,11.4,-1.2
2022/12/29 00:40:00,11.3,-1.1
2022/12/29 00:50:00,11.1,-0.8
2022/12/29 01:00:00,11.1,-1.0
2022/12/29 01:10:00,11.2,-1.1
2022/12/29 01:20:00,11.4,-1.1
2022/12/29 01:30:00,11.4,-0.9
2022/12/29 01:40:00,11.3,-1.2
2022/12/29 01:50:00,11.2,-1.1
2022/12/29 02:00:00,11.5,-1.2
2022/12/29 02:10:00,11.4,-1.4
2022/12/29 02:20:00,11.6,-1.5
2022/12/29 02:30:00,11.6,-1.7
2022/12/29 02:40:00,11.6,-1.9
2022/12/29 02:50:00,11.5,-2.1
2022/12/29 03:00:00,11.5,-1.8
2022/12/29 03:10:00,11.3,-1.9
2022/12/29 03:20:00,11.2,-2.3
2022/12/29 03:30:00,11.3,-2.1
2022/12/29 03:40:00,11.3,-1.9
2022/12/29 03:50:00,11.2,-2.0
2022/12/29 04:00:00,11.2,-2.4
2022/12/29 04:10:00,11.3,-2.1
2022/12/29 04:20:00,11.3,-2.3
2022/12/29 04:30:00,11.3,-2.5
2022/12/29 04:40:00,11.4,-2.1
2022/12/29 04:50:00,11.3,-2.4
2022/12/29 05:00:00,11.4,-2.3
2022/12/29 05:10:00,11.4,-2.1
2022/12/29 05:20:00,11.4,-2.3
2022/12/29 05:30:00,11.4,-2.3
2022/12/29 05:40:00,11.4,-2.4
2022/12/29 05:50:00,11.3,-2.2
2022/12/29 06:00:00,11.3,-2.3
2022/12/29 06:10:00,11.2,-2.4
2022/12/29 06:20:00,11.3,-2.5
2022/12/29 06:30:00,11.3,-2.0
2022/12/29 06:40:00,11.3,-2.7
2022/12/29 06:50:00,11.3,-2.2
2022/12/29 07:00:00,11.3,-2.2
2022/12/29 07:10:00,11.3,-2.3
2022/12/29 07:20:00,11.2,-2.3
2022/12/29 07:30:00,11.2,-2.3
2022/12/29 07:40:00,11.2,-2.4
2022/12/29 07:50:00,11.2,-2.4
2022/12/29 08:00:00,11.2,-2.3
2022/12/29 08:10:00,11.2,-2.0
2022/12/29 08:20:00,11.1,-1.7
2022/12/29 08:30:00,11.0,-1.4
2022/12/29 08:40:00,10.9,-1.4
2022/12/29 08:50:00,10.9,-1.2
2022/12/29 09:00:00,10.8,-0.8
2022/12/29 09:10:00,10.8,-0.5
2022/12/29 09:20:00,10.7, 1.4
2022/12/29 09:30:00,10.0, 1.5
2022/12/29 09:40:00,10.6, 1.3
2022/12/29 09:50:00,10.6, 2.4
2022/12/29 10:00:00,10.4, 2.0
2022/12/29 10:10:00,10.8, 2.4
2022/12/29 10:20:00,10.4, 3.5
2022/12/29 10:30:00,10.3, 3.1
2022/12/29 10:40:00,10.4, 4.8
2022/12/29 10:50:00,10.3, 3.6
2022/12/29 11:00:00,10.2, 3.1
2022/12/29 11:10:00,10.3, 3.4
2022/12/29 11:20:00,10.0, 3.6
2022/12/29 11:30:00, 9.8, 4.4
2022/12/29 11:40:00, 9.4, 5.3
2022/12/29 11:50:00, 9.2, 4.5
2022/12/29 12:00:00, 9.0, 4.6
2022/12/29 12:10:00, 8.9, 5.3
2022/12/29 12:20:00, 9.0, 4.7
2022/12/29 12:30:00, 9.3, 4.3
2022/12/29 12:40:00, 9.2, 5.2
2022/12/29 12:50:00, 9.1, 5.5
2022/12/29 13:00:00,---, 8.1
2022/12/29 13:10:00, 9.0, 6.3
2022/12/29 13:20:00, 9.1, 6.3
2022/12/29 13:30:00, 8.7, 8.8
2022/12/29 13:40:00, 8.7, 9.6
2022/12/29 13:50:00, 8.8, 8.0
2022/12/29 14:00:00, 9.0, 7.2
2022/12/29 14:10:00, 9.4, 6.3
2022/12/29 14:20:00, 9.5, 6.2
2022/12/29 14:30:00, 9.5, 6.8
2022/12/29 14:40:00, 9.4, 6.4
2022/12/29 14:50:00, 9.3, 6.3
2022/12/29 15:00:00, 9.4, 6.2
2022/12/29 15:10:00, 9.5, 6.0
2022/12/29 15:20:00, 9.3, 5.9
2022/12/29 15:30:00, 9.2, 5.5
2022/12/29 15:40:00, 9.4, 5.0
2022/12/29 15:50:00, 9.3, 4.6
2022/12/29 16:00:00, 9.3, 3.5
2022/12/29 16:10:00, 9.3, 3.6
2022/12/29 16:20:00, 9.1, 3.7
2022/12/29 16:30:00, 9.1, 3.1
2022/12/29 16:40:00, 9.1, 3.2
2022/12/29 16:50:00, 9.2, 2.3
2022/12/29 17:00:00, 9.2, 1.5
2022/12/29 17:10:00, 9.3, 1.3
2022/12/29 17:20:00, 9.3, 1.1
2022/12/29 17:30:00, 9.3, 1.2
2022/12/29 17:40:00, 9.4, 1.7
2022/12/29 17:50:00, 9.3, 1.8
2022/12/29 18:00:00, 9.2, 1.3
2022/12/29 18:10:00, 9.2, 1.1
2022/12/29 18:20:00, 9.2, 1.2
2022/12/29 18:30:00, 9.2, 1.0
2022/12/29 18:40:00, 9.2, 0.9
2022/12/29 18:50:00, 9.2, 0.9
2022/12/29 19:00:00, 9.2, 0.7
2022/12/29 19:10:00, 9.2, 0.8
2022/12/29 19:20:00, 9.3, 0.5
2022/12/29 19:30:00, 9.2, 0.2
2022/12/29 19:40:00, 9.2, 0.0
2022/12/29 19:50:00, 9.3, 0.1
2022/12/29 20:00:00, 9.3, 0.3
2022/12/29 20:10:00, 9.3, 0.4
2022/12/29 20:20:00, 9.2, 0.5
2022/12/29 20:30:00, 9.2, 0.4
2022/12/29 20:40:00, 9.2, 0.6
2022/12/29 20:50:00, 9.2, 0.3
2022/12/29 21:00:00, 9.3, 0.3
2022/12/29 21:10:00, 9.3, 0.3
2022/12/29 21:20:00, 9.4, 0.1
2022/12/29 21:30:00, 9.3, 0.1
2022/12/29 21:40:00, 9.3, 0.1
2022/12/29 21:50:00, 9.3, 0.6
2022/12/29 22:00:00, 9.3, 0.0
2022/12/29 22:10:00, 9.4, 0.0
2022/12/29 22:20:00, 9.3, 0.2
2022/12/29 22:30:00, 9.4, 0.1
2022/12/29 22:40:00, 9.4, 0.0
2022/12/29 22:50:00, 9.4, 0.0
2022/12/29 23:00:00, 9.4, 0.2
2022/12/29 23:10:00, 9.4, 0.1
2022/12/29 23:20:00, 9.4, 0.3
2022/12/29 23:30:00, 9.3, 0.1
2022/12/29 23:40:00, 9.4, 0.1
2022/12/29 23:50:00, 9.2,-0.1
